Location: Kernascl�den
(48.0062°N, 3.3198°W)
Time: 22:05:10
(UTC+00:00)

Meteor 1-24 Rocket - Pass Details

Date: 21 January 2021
Orbit: 791 x 926 km, 81.3° (Epoch: 03 March)

Event Time Altitude Azimuth Distance (km) Brightness Sun altitude
Rises 17:30:07 0° 178° (S) 3,314 7.1 -5.9°
Reaches altitude 10° 17:32:32 10° 174° (S) 2,374 6.3 -6.2°
Maximum altitude 17:37:46 59° 96° (E) 918 3.7 -7.1°
Drops below altitude 10° 17:42:58 10° 18° (NNE) 2,368 5.7 -7.9°
Sets 17:45:23 0° 15° (NNE) 3,305 6.4 -8.2°
